Flag for Canada Weather past 2 weeks in Red Deer, Alberta, Canada

Now
61 °F

Overcast.


Feels Like: 61 °F
Forecast: 34 / 57 °F
Wind: No wind

Location: Red Deer

Current Time: Mar 29, 2015 at 4:33:29 PM

Latest Report: Mar 29, 2015 at 4:00 PM


Visibility: 15 mi

Pressure: 29.80 "Hg

Humidity: 29%

Dew point: 28 °F

Location of Red DeerLocation

Historic Weather in Red Deer — Graph

°F

Red Deer temperature yesterday

Maximum temperature yesterday: 48 °F (at 4:00 PM)
Minimum temperature yesterday: 34 °F (at 6:00 AM)
Average temperature yesterday: 42 °F

Past Weeks' High & Low Weather Summary

 TemperatureHumidityPressure
High64 °F (Mar 27, 4:00 PM)100% (Mar 15, 11:00 PM)30.56 "Hg (Mar 15, 11:00 PM)
Low18 °F (Mar 22, 11:00 PM)31% (Mar 29, 2:00 PM)29.31 "Hg (Mar 14, 6:00 PM)
Average34 °F79%30.05 "Hg
* Reported Mar 14 3:00 PM — Mar 29 3:00 PM, Red Deer, Weather by CustomWeather, © 2015

Note: Actual official high and low records may vary slightly from our data, if they occured in-between our weather recording intervals... More about our weather records

Advertising

Red Deer weather history for previous 24 hours

 ConditionsComfort  
Time TempWeatherWind HumidityBarometerVisibility
3:00 PM
Sun, Mar 29
61 °FOvercast.9 mph34%29.81 "Hg15 mi
2:00 PM61 °FPartly sunny.16 mph31%29.83 "Hg15 mi
1:00 PM57 °FPartly sunny.12 mph36%29.86 "Hg15 mi
12:00 PM54 °FPartly sunny.9 mph47%29.90 "Hg15 mi
11:00 AM50 °FPartly sunny.8 mph54%29.93 "Hg15 mi
10:00 AM43 °FPartly sunny.5 mph71%29.97 "Hg15 mi
9:00 AM36 °FPartly sunny.2 mph75%29.99 "Hg15 mi
8:00 AM30 °FPassing clouds.5 mph86%30.01 "Hg15 mi
7:00 AM30 °FPassing clouds.6 mph86%30.02 "Hg15 mi
6:00 AM28 °FPassing clouds.7 mph86%30.03 "Hg15 mi
5:00 AM30 °FClear.5 mph86%30.03 "Hg15 mi
4:00 AM32 °FPassing clouds.8 mph87%30.03 "Hg15 mi
3:00 AM34 °FClear.8 mph81%30.06 "Hg15 mi
2:00 AM34 °FClear.8 mph87%30.06 "Hg15 mi
1:00 AM34 °FPassing clouds.8 mph87%30.07 "Hg15 mi
12:00 AM32 °FPassing clouds.8 mph87%30.08 "Hg15 mi
11:00 PM
Sat, Mar 28
34 °FPartly cloudy.6 mph87%30.08 "Hg15 mi
10:00 PM36 °FPassing clouds.8 mph81%30.08 "Hg15 mi
9:00 PM39 °FChilly.3 mph70%30.04 "Hg15 mi
8:00 PM43 °FScattered clouds.3 mph61%30.01 "Hg15 mi
7:00 PM46 °FScattered clouds.9 mph57%29.99 "Hg15 mi
6:00 PM46 °FPassing clouds.15 mph57%29.97 "Hg15 mi
5:00 PM48 °FPassing clouds.21 mph58%29.93 "Hg15 mi
4:00 PM48 °FPartly sunny.22 mph62%29.89 "Hg15 mi
Weather by CustomWeather, © 2015

See weather overviewHow to use our weather pages